User: anonymous   Login
Location: Fort Wayne
(41.1310°N, 85.1290°W)
Time: 23:31:28
(UTC-05:00)
Language:

Cosmos 1953 - Orbit

View from above orbital plane
View from above orbital plane
View from above satellite
View from above satellite

Ground track
Ground track

The orbit data is extracted from the following two-line orbital elements,

1 19210U 88050A   17055.21545772  .00000204  00000-0  12318-4 0  9990
2 19210  82.5192 142.9152 0011685 286.4346  73.5596 15.05148106560849
Epoch (UTC): 24 February 2017 05:10:15
Eccentricity: 0.0011685
inclination: 82.5192°
perigee height: 543 km
apogee height: 559 km
right ascension of ascending node: 142.9152°
argument of perigee: 286.4346°
revolutions per day: 15.05148106
mean anomaly at epoch: 73.5596°
orbit number at epoch: 56084

The dashed part of the orbit path shows where the satellite is in the earth's shadow,  

DLR